Time,TemperatureF,DewpointF,PressureIn,WindDirection,WindDirectionDegrees,WindSpeedMPH,WindSpeedGustMPH,Humidity,HourlyPrecipIn,Conditions,Clouds,dailyrainin,SoftwareType,DateUTC
2013-01-28 00:00:00,25.7,23.4,30.40,NNW,329,0.0,0.0,91,0.00,,,0.00,Wunderground v.1.15,2013-01-28 05:00:00,
2013-01-28 00:05:00,25.6,23.3,30.40,NNW,329,0.0,0.0,91,0.00,,,0.00,Wunderground v.1.15,2013-01-28 05:05:00,
2013-01-28 00:10:00,25.6,23.3,30.40,NNW,329,0.0,0.0,91,0.00,,,0.00,Wunderground v.1.15,2013-01-28 05:10:00,
2013-01-28 00:15:00,25.5,23.2,30.39,NNW,329,0.0,0.0,91,0.00,,,0.00,Wunderground v.1.15,2013-01-28 05:15:00,
2013-01-28 00:20:00,25.4,23.1,30.39,NNW,329,0.0,0.0,91,0.00,,,0.00,Wunderground v.1.15,2013-01-28 05:20:00,
2013-01-28 00:25:00,25.3,23.0,30.40,NNW,329,0.0,0.0,91,0.00,,,0.00,Wunderground v.1.15,2013-01-28 05:25:00,
2013-01-28 00:30:00,25.3,23.0,30.39,NNW,329,0.0,0.0,91,0.00,,,0.00,Wunderground v.1.15,2013-01-28 05:30:00,
2013-01-28 00:35:00,25.2,22.9,30.39,NNW,329,0.0,0.0,91,0.00,,,0.00,Wunderground v.1.15,2013-01-28 05:35:00,
2013-01-28 00:40:00,25.2,22.9,30.39,NNW,329,0.0,0.0,91,0.00,,,0.00,Wunderground v.1.15,2013-01-28 05:40:00,
2013-01-28 00:45:00,25.2,22.9,30.39,NNW,329,0.0,0.0,91,0.00,,,0.00,Wunderground v.1.15,2013-01-28 05:45:00,
2013-01-28 00:50:00,25.2,23.2,30.39,NNW,329,0.0,0.0,92,0.00,,,0.00,Wunderground v.1.15,2013-01-28 05:50:00,
2013-01-28 00:55:00,25.3,23.3,30.39,NNW,329,0.0,0.0,92,0.00,,,0.00,Wunderground v.1.15,2013-01-28 05:55:00,
2013-01-28 01:00:00,25.3,23.3,30.39,NNW,329,0.0,0.0,92,0.00,,,0.00,Wunderground v.1.15,2013-01-28 06:00:00,
2013-01-28 01:05:00,25.3,23.3,30.39,NNW,329,0.0,0.0,92,0.00,,,0.00,Wunderground v.1.15,2013-01-28 06:05:00,
2013-01-28 01:15:00,25.4,23.4,30.39,NNW,329,0.0,0.0,92,0.00,,,0.00,Wunderground v.1.15,2013-01-28 06:15:00,
2013-01-28 01:20:00,25.5,23.5,30.39,NNW,329,0.0,0.0,92,0.00,,,0.00,Wunderground v.1.15,2013-01-28 06:20:00,
2013-01-28 01:30:00,25.7,24.0,30.39,NNW,329,0.0,0.0,93,0.00,,,0.00,Wunderground v.1.15,2013-01-28 06:30:00,
2013-01-28 01:35:00,25.9,24.2,30.39,NNW,329,0.0,0.0,93,0.00,,,0.00,Wunderground v.1.15,2013-01-28 06:35:00,
2013-01-28 01:40:00,26.0,24.3,30.39,NNW,329,0.0,0.0,93,0.00,,,0.00,Wunderground v.1.15,2013-01-28 06:40:00,
2013-01-28 01:45:00,26.3,24.6,30.39,NNW,329,0.0,0.0,93,0.00,,,0.00,Wunderground v.1.15,2013-01-28 06:45:00,
2013-01-28 01:55:00,26.8,25.3,30.38,NNW,329,0.0,0.0,94,0.00,,,0.00,Wunderground v.1.15,2013-01-28 06:55:00,
2013-01-28 02:00:00,26.9,25.1,30.38,NNW,329,0.0,0.0,93,0.00,,,0.00,Wunderground v.1.15,2013-01-28 07:00:00,
2013-01-28 02:05:00,27.0,25.2,30.38,NNW,329,0.0,0.0,93,0.00,,,0.00,Wunderground v.1.15,2013-01-28 07:05:00,
2013-01-28 02:10:00,27.2,25.4,30.37,NNW,329,0.0,1.0,93,0.00,,,0.00,Wunderground v.1.15,2013-01-28 07:10:00,
2013-01-28 02:15:00,27.3,25.8,30.37,NNW,329,0.0,1.0,94,0.00,,,0.00,Wunderground v.1.15,2013-01-28 07:15:00,
2013-01-28 02:25:00,27.6,26.1,30.37,NNW,329,0.0,0.0,94,0.00,,,0.00,Wunderground v.1.15,2013-01-28 07:25:00,
2013-01-28 02:30:00,27.7,26.2,30.37,NNW,329,0.0,0.0,94,0.00,,,0.00,Wunderground v.1.15,2013-01-28 07:30:00,
2013-01-28 02:35:00,27.9,26.4,30.37,NNW,329,0.0,0.0,94,0.00,,,0.00,Wunderground v.1.15,2013-01-28 07:35:00,
2013-01-28 02:40:00,28.1,26.6,30.37,NNW,329,0.0,0.0,94,0.00,,,0.00,Wunderground v.1.15,2013-01-28 07:40:00,
2013-01-28 02:45:00,28.3,26.8,30.37,NNW,329,0.0,0.0,94,0.00,,,0.00,Wunderground v.1.15,2013-01-28 07:45:00,
2013-01-28 02:50:00,28.5,27.0,30.37,NNW,329,0.0,0.0,94,0.00,,,0.00,Wunderground v.1.15,2013-01-28 07:50:00,
2013-01-28 03:00:00,28.8,27.3,30.37,NNW,329,0.0,0.0,94,0.00,,,0.00,Wunderground v.1.15,2013-01-28 08:00:00,
2013-01-28 03:05:00,28.9,27.4,30.37,NNW,329,0.0,0.0,94,0.00,,,0.00,Wunderground v.1.15,2013-01-28 08:05:00,
2013-01-28 03:10:00,28.9,27.4,30.37,NNW,329,0.0,0.0,94,0.00,,,0.00,Wunderground v.1.15,2013-01-28 08:10:00,
2013-01-28 03:15:00,29.1,27.6,30.37,NNW,329,0.0,0.0,94,0.00,,,0.00,Wunderground v.1.15,2013-01-28 08:15:00,
2013-01-28 03:20:00,29.2,27.7,30.37,NNW,329,0.0,0.0,94,0.00,,,0.00,Wunderground v.1.15,2013-01-28 08:20:00,
2013-01-28 03:30:00,29.5,28.0,30.37,NNW,329,0.0,0.0,94,0.00,,,0.00,Wunderground v.1.15,2013-01-28 08:30:00,
2013-01-28 03:35:00,29.6,28.1,30.37,NNW,329,0.0,0.0,94,0.00,,,0.00,Wunderground v.1.15,2013-01-28 08:35:00,
2013-01-28 03:40:00,29.7,28.2,30.37,NNW,329,0.0,0.0,94,0.00,,,0.00,Wunderground v.1.15,2013-01-28 08:40:00,
2013-01-28 03:45:00,29.9,28.1,30.37,NNW,329,0.0,0.0,93,0.00,,,0.00,Wunderground v.1.15,2013-01-28 08:45:00,
2013-01-28 03:50:00,30.1,28.3,30.37,NNW,329,0.0,0.0,93,0.00,,,0.00,Wunderground v.1.15,2013-01-28 08:50:00,
2013-01-28 03:55:00,30.3,28.5,30.37,NNW,329,0.0,0.0,93,0.00,,,0.00,Wunderground v.1.15,2013-01-28 08:55:00,
2013-01-28 04:00:00,30.5,28.7,30.37,NNW,329,0.0,0.0,93,0.00,,,0.00,Wunderground v.1.15,2013-01-28 09:00:00,
2013-01-28 04:05:00,30.6,28.6,30.37,NNW,329,0.0,0.0,92,0.00,,,0.00,Wunderground v.1.15,2013-01-28 09:05:00,
2013-01-28 04:10:00,30.6,28.6,30.37,NNW,329,0.0,0.0,92,0.00,,,0.00,Wunderground v.1.15,2013-01-28 09:10:00,
2013-01-28 04:15:00,30.7,28.7,30.37,NNW,329,0.0,0.0,92,0.00,,,0.00,Wunderground v.1.15,2013-01-28 09:15:00,
2013-01-28 04:20:00,30.8,28.8,30.37,NNW,329,0.0,0.0,92,0.00,,,0.00,Wunderground v.1.15,2013-01-28 09:20:00,
2013-01-28 04:25:00,31.0,28.9,30.36,NNW,342,0.0,0.0,92,0.00,,,0.00,Wunderground v.1.15,2013-01-28 09:25:00,
2013-01-28 04:35:00,31.1,29.0,30.36,North,5,1.0,1.0,92,0.00,,,0.00,Wunderground v.1.15,2013-01-28 09:35:00,
2013-01-28 04:40:00,31.2,29.1,30.36,North,5,0.0,0.0,92,0.00,,,0.00,Wunderground v.1.15,2013-01-28 09:40:00,
2013-01-28 04:45:00,31.3,29.2,30.36,North,5,0.0,0.0,92,0.00,,,0.00,Wunderground v.1.15,2013-01-28 09:45:00,
2013-01-28 04:50:00,31.3,29.2,30.37,North,5,0.0,0.0,92,0.00,,,0.00,Wunderground v.1.15,2013-01-28 09:50:00,
2013-01-28 04:55:00,31.3,29.2,30.36,North,5,0.0,0.0,92,0.00,,,0.00,Wunderground v.1.15,2013-01-28 09:55:00,
2013-01-28 05:05:00,31.5,29.4,30.36,North,5,0.0,1.0,92,0.00,,,0.00,Wunderground v.1.15,2013-01-28 10:05:00,
2013-01-28 05:10:00,31.6,29.5,30.35,North,5,0.0,0.0,92,0.00,,,0.00,Wunderground v.1.15,2013-01-28 10:10:00,
2013-01-28 05:15:00,31.6,29.5,30.36,North,9,0.0,0.0,92,0.00,,,0.00,Wunderground v.1.15,2013-01-28 10:15:00,
2013-01-28 05:20:00,31.6,29.5,30.35,North,9,1.0,1.0,92,0.00,,,0.00,Wunderground v.1.15,2013-01-28 10:20:00,
2013-01-28 05:25:00,31.7,29.6,30.35,NNE,12,1.0,1.0,92,0.00,,,0.00,Wunderground v.1.15,2013-01-28 10:25:00,
2013-01-28 05:30:00,31.7,29.6,30.35,NNE,12,0.0,0.0,92,0.00,,,0.00,Wunderground v.1.15,2013-01-28 10:30:00,
2013-01-28 05:40:00,31.7,29.4,30.35,NNE,12,0.0,0.0,91,0.00,,,0.00,Wunderground v.1.15,2013-01-28 10:40:00,
2013-01-28 05:45:00,31.7,29.4,30.35,NNE,12,0.0,0.0,91,0.00,,,0.00,Wunderground v.1.15,2013-01-28 10:45:00,
2013-01-28 05:50:00,31.8,29.5,30.35,NNE,12,0.0,0.0,91,0.00,,,0.00,Wunderground v.1.15,2013-01-28 10:50:00,
2013-01-28 05:55:00,31.9,29.6,30.35,NNE,12,0.0,0.0,91,0.00,,,0.00,Wunderground v.1.15,2013-01-28 10:55:00,
2013-01-28 06:00:00,31.9,29.6,30.35,NNE,12,0.0,0.0,91,0.00,,,0.00,Wunderground v.1.15,2013-01-28 11:00:00,
2013-01-28 06:05:00,31.9,29.6,30.35,NNE,12,0.0,0.0,91,0.00,,,0.00,Wunderground v.1.15,2013-01-28 11:05:00,
2013-01-28 06:15:00,32.0,29.7,30.36,NNE,12,0.0,0.0,91,0.00,,,0.00,Wunderground v.1.15,2013-01-28 11:15:00,
2013-01-28 06:20:00,32.0,29.7,30.36,NNE,12,0.0,0.0,91,0.00,,,0.00,Wunderground v.1.15,2013-01-28 11:20:00,
2013-01-28 06:25:00,32.0,29.7,30.36,NNE,12,0.0,0.0,91,0.00,,,0.00,Wunderground v.1.15,2013-01-28 11:25:00,
2013-01-28 06:30:00,32.1,29.8,30.35,NE,34,0.0,1.0,91,0.00,,,0.00,Wunderground v.1.15,2013-01-28 11:30:00,
2013-01-28 06:35:00,32.3,30.2,30.35,ENE,73,1.0,2.0,92,0.00,,,0.00,Wunderground v.1.15,2013-01-28 11:35:00,
2013-01-28 06:45:00,32.2,30.1,30.34,ENE,72,1.0,1.0,92,0.00,,,0.00,Wunderground v.1.15,2013-01-28 11:45:00,
2013-01-28 06:55:00,32.2,30.1,30.34,ENE,72,1.0,2.0,92,0.00,,,0.00,Wunderground v.1.15,2013-01-28 11:55:00,
2013-01-28 07:00:00,32.2,30.1,30.33,East,83,1.0,2.0,92,0.00,,,0.00,Wunderground v.1.15,2013-01-28 12:00:00,
2013-01-28 07:05:00,32.2,30.1,30.34,East,83,1.0,2.0,92,0.00,,,0.00,Wunderground v.1.15,2013-01-28 12:05:00,
2013-01-28 07:15:00,32.3,30.2,30.35,East,81,1.0,1.0,92,0.00,,,0.00,Wunderground v.1.15,2013-01-28 12:15:00,
2013-01-28 07:20:00,32.3,30.2,30.35,East,82,0.0,1.0,92,0.00,,,0.00,Wunderground v.1.15,2013-01-28 12:20:00,
2013-01-28 07:25:00,32.3,30.2,30.36,East,82,0.0,1.0,92,0.00,,,0.00,Wunderground v.1.15,2013-01-28 12:25:00,
2013-01-28 07:30:00,32.3,30.2,30.36,ESE,114,0.0,1.0,92,0.00,,,0.00,Wunderground v.1.15,2013-01-28 12:30:00,
2013-01-28 07:35:00,32.4,30.3,30.36,ESE,114,0.0,1.0,92,0.00,,,0.00,Wunderground v.1.15,2013-01-28 12:35:00,
2013-01-28 07:40:00,32.5,30.4,30.36,ESE,114,0.0,1.0,92,0.00,,,0.00,Wunderground v.1.15,2013-01-28 12:40:00,
2013-01-28 07:50:00,32.6,30.5,30.36,ESE,114,0.0,1.0,92,0.00,,,0.00,Wunderground v.1.15,2013-01-28 12:50:00,
2013-01-28 07:55:00,32.7,30.6,30.36,ESE,114,0.0,1.0,92,0.00,,,0.00,Wunderground v.1.15,2013-01-28 12:55:00,
2013-01-28 08:00:00,32.8,30.7,30.36,ESE,115,0.0,1.0,92,0.00,,,0.00,Wunderground v.1.15,2013-01-28 13:00:00,
2013-01-28 08:05:00,32.8,30.7,30.35,ESE,115,0.0,1.0,92,0.00,,,0.00,Wunderground v.1.15,2013-01-28 13:05:00,
2013-01-28 08:10:00,32.9,30.8,30.35,ESE,115,0.0,1.0,92,0.00,,,0.00,Wunderground v.1.15,2013-01-28 13:10:00,
2013-01-28 08:20:00,33.0,30.9,30.36,SE,128,0.0,2.0,92,0.00,,,0.00,Wunderground v.1.15,2013-01-28 13:20:00,
2013-01-28 08:25:00,33.1,31.0,30.36,SE,130,0.0,2.0,92,0.00,,,0.00,Wunderground v.1.15,2013-01-28 13:25:00,
2013-01-28 08:30:00,33.1,31.0,30.36,SE,130,0.0,0.0,92,0.00,,,0.00,Wunderground v.1.15,2013-01-28 13:30:00,
2013-01-28 08:35:00,33.2,31.1,30.36,SE,130,0.0,0.0,92,0.00,,,0.00,Wunderground v.1.15,2013-01-28 13:35:00,
2013-01-28 08:40:00,33.2,31.1,30.36,SE,130,0.0,0.0,92,0.00,,,0.00,Wunderground v.1.15,2013-01-28 13:40:00,
2013-01-28 08:45:00,33.3,31.2,30.36,SE,130,0.0,0.0,92,0.00,,,0.00,Wunderground v.1.15,2013-01-28 13:45:00,
2013-01-28 08:55:00,33.5,31.2,30.36,SE,130,0.0,0.0,91,0.00,,,0.00,Wunderground v.1.15,2013-01-28 13:55:00,
2013-01-28 09:00:00,33.6,31.3,30.36,SE,130,0.0,0.0,91,0.00,,,0.00,Wunderground v.1.15,2013-01-28 14:00:00,
2013-01-28 09:05:00,33.7,31.4,30.36,SE,130,0.0,0.0,91,0.00,,,0.00,Wunderground v.1.15,2013-01-28 14:05:00,
2013-01-28 09:10:00,33.8,31.5,30.36,SE,130,0.0,0.0,91,0.00,,,0.00,Wunderground v.1.15,2013-01-28 14:10:00,
2013-01-28 09:15:00,33.9,31.6,30.36,SE,130,0.0,0.0,91,0.00,,,0.00,Wunderground v.1.15,2013-01-28 14:15:00,
2013-01-28 09:20:00,34.0,31.6,30.36,SE,130,0.0,0.0,91,0.00,,,0.01,Wunderground v.1.15,2013-01-28 14:20:00,
2013-01-28 09:30:00,34.3,31.7,30.35,SSE,158,1.0,1.0,90,0.00,,,0.01,Wunderground v.1.15,2013-01-28 14:30:00,
2013-01-28 09:35:00,34.5,31.9,30.35,SSW,201,1.0,3.0,90,0.00,,,0.01,Wunderground v.1.15,2013-01-28 14:35:00,
2013-01-28 09:40:00,34.7,32.3,30.35,South,182,1.0,2.0,91,0.00,,,0.01,Wunderground v.1.15,2013-01-28 14:40:00,
2013-01-28 09:45:00,34.8,32.2,30.35,SSW,209,1.0,2.0,90,0.00,,,0.01,Wunderground v.1.15,2013-01-28 14:45:00,
2013-01-28 09:50:00,34.9,32.3,30.35,SSW,209,0.0,0.0,90,0.00,,,0.01,Wunderground v.1.15,2013-01-28 14:50:00,
2013-01-28 10:00:00,35.2,32.6,30.34,SSW,209,0.0,1.0,90,0.00,,,0.01,Wunderground v.1.15,2013-01-28 15:00:00,
2013-01-28 10:05:00,35.4,32.5,30.34,SSW,209,0.0,2.0,89,0.00,,,0.01,Wunderground v.1.15,2013-01-28 15:05:00,
2013-01-28 10:10:00,35.7,33.1,30.34,SSW,207,0.0,2.0,90,0.00,,,0.01,Wunderground v.1.15,2013-01-28 15:10:00,
2013-01-28 10:15:00,36.2,33.5,30.34,South,176,0.0,2.0,90,0.00,,,0.02,Wunderground v.1.15,2013-01-28 15:15:00,
2013-01-28 10:20:00,36.8,33.9,30.34,WSW,242,0.0,2.0,89,0.00,,,0.02,Wunderground v.1.15,2013-01-28 15:20:00,
2013-01-28 10:25:00,37.4,34.5,30.34,WSW,240,1.0,2.0,89,0.00,,,0.02,Wunderground v.1.15,2013-01-28 15:25:00,
2013-01-28 10:35:00,38.7,34.9,30.34,SW,215,2.0,2.0,86,0.00,,,0.02,Wunderground v.1.15,2013-01-28 15:35:00,
2013-01-28 10:40:00,39.0,34.9,30.34,SW,221,1.0,2.0,85,0.00,,,0.02,Wunderground v.1.15,2013-01-28 15:40:00,
2013-01-28 10:45:00,39.1,34.7,30.34,SSW,205,0.0,2.0,84,0.00,,,0.02,Wunderground v.1.15,2013-01-28 15:45:00,
2013-01-28 10:50:00,39.4,34.7,30.33,SSW,200,1.0,1.0,83,0.00,,,0.02,Wunderground v.1.15,2013-01-28 15:50:00,
2013-01-28 10:55:00,39.6,34.9,30.33,South,184,1.0,2.0,83,0.00,,,0.02,Wunderground v.1.15,2013-01-28 15:55:00,
2013-01-28 11:05:00,40.3,35.5,30.32,SSE,162,1.0,5.0,83,0.00,,,0.02,Wunderground v.1.15,2013-01-28 16:05:00,
2013-01-28 11:10:00,40.8,35.7,30.31,SSE,166,2.0,4.0,82,0.00,,,0.02,Wunderground v.1.15,2013-01-28 16:10:00,
2013-01-28 11:15:00,41.4,36.0,30.31,SSE,165,4.0,4.0,81,0.00,,,0.02,Wunderground v.1.15,2013-01-28 16:15:00,
2013-01-28 11:20:00,41.9,36.2,30.31,South,178,4.0,5.0,80,0.00,,,0.02,Wunderground v.1.15,2013-01-28 16:20:00,
2013-01-28 11:30:00,42.5,36.1,30.30,South,177,4.0,4.0,78,0.00,,,0.02,Wunderground v.1.15,2013-01-28 16:30:00,
2013-01-28 11:40:00,43.3,35.9,30.30,SSE,154,3.0,5.0,75,0.00,,,0.02,Wunderground v.1.15,2013-01-28 16:40:00,
2013-01-28 11:45:00,43.8,36.7,30.29,SW,215,3.0,5.0,76,0.00,,,0.02,Wunderground v.1.15,2013-01-28 16:45:00,
2013-01-28 11:50:00,44.4,36.6,30.29,SW,223,3.0,3.0,74,0.00,,,0.02,Wunderground v.1.15,2013-01-28 16:50:00,
2013-01-28 11:55:00,45.0,36.9,30.28,SSW,193,3.0,4.0,73,0.00,,,0.02,Wunderground v.1.15,2013-01-28 16:55:00,
2013-01-28 12:00:00,45.6,37.1,30.28,SSE,155,4.0,6.0,72,0.00,,,0.02,Wunderground v.1.15,2013-01-28 17:00:00,
2013-01-28 12:05:00,45.8,36.6,30.28,South,191,4.0,6.0,70,0.00,,,0.02,Wunderground v.1.15,2013-01-28 17:05:00,
2013-01-28 12:15:00,46.1,37.2,30.27,SSW,210,3.0,4.0,71,0.00,,,0.02,Wunderground v.1.15,2013-01-28 17:15:00,
2013-01-28 12:20:00,46.5,37.2,30.27,SW,219,3.0,5.0,70,0.00,,,0.02,Wunderground v.1.15,2013-01-28 17:20:00,
2013-01-28 12:25:00,46.9,38.0,30.26,SSE,161,3.0,5.0,71,0.00,,,0.02,Wunderground v.1.15,2013-01-28 17:25:00,
2013-01-28 12:30:00,47.3,37.6,30.25,South,187,4.0,5.0,69,0.00,,,0.02,Wunderground v.1.15,2013-01-28 17:30:00,
2013-01-28 12:35:00,47.8,38.1,30.25,SW,221,3.0,5.0,69,0.00,,,0.02,Wunderground v.1.15,2013-01-28 17:35:00,
2013-01-28 12:45:00,48.5,38.0,30.25,SSW,192,3.0,3.0,67,0.00,,,0.02,Wunderground v.1.15,2013-01-28 17:45:00,
2013-01-28 12:50:00,48.6,38.1,30.24,SSE,163,4.0,4.0,67,0.00,,,0.02,Wunderground v.1.15,2013-01-28 17:50:00,
2013-01-28 12:55:00,48.6,37.7,30.24,SSW,193,5.0,5.0,66,0.00,,,0.02,Wunderground v.1.15,2013-01-28 17:55:00,
2013-01-28 13:00:00,48.6,38.1,30.24,SW,236,4.0,4.0,67,0.00,,,0.02,Wunderground v.1.15,2013-01-28 18:00:00,
2013-01-28 13:05:00,48.6,38.1,30.23,SSW,211,4.0,6.0,67,0.00,,,0.02,Wunderground v.1.15,2013-01-28 18:05:00,
2013-01-28 13:10:00,48.7,38.6,30.23,South,172,4.0,4.0,68,0.00,,,0.02,Wunderground v.1.15,2013-01-28 18:10:00,
2013-01-28 13:20:00,49.0,38.5,30.22,SSE,165,4.0,5.0,67,0.00,,,0.02,Wunderground v.1.15,2013-01-28 18:20:00,
2013-01-28 13:25:00,49.1,38.6,30.22,SW,219,4.0,5.0,67,0.00,,,0.02,Wunderground v.1.15,2013-01-28 18:25:00,
2013-01-28 13:30:00,49.0,38.5,30.21,SW,223,5.0,5.0,67,0.00,,,0.02,Wunderground v.1.15,2013-01-28 18:30:00,
2013-01-28 13:35:00,48.8,38.3,30.21,SSW,209,5.0,5.0,67,0.00,,,0.02,Wunderground v.1.15,2013-01-28 18:35:00,
2013-01-28 13:40:00,48.7,38.2,30.20,SW,215,4.0,5.0,67,0.00,,,0.02,Wunderground v.1.15,2013-01-28 18:40:00,
2013-01-28 13:50:00,48.9,38.8,30.19,SSW,195,4.0,5.0,68,0.00,,,0.02,Wunderground v.1.15,2013-01-28 18:50:00,
2013-01-28 13:55:00,49.0,38.9,30.19,SW,217,4.0,5.0,68,0.00,,,0.02,Wunderground v.1.15,2013-01-28 18:55:00,
2013-01-28 14:00:00,49.2,39.5,30.19,SSW,194,4.0,4.0,69,0.00,,,0.02,Wunderground v.1.15,2013-01-28 19:00:00,
2013-01-28 14:05:00,49.4,39.3,30.19,SW,234,5.0,6.0,68,0.00,,,0.02,Wunderground v.1.15,2013-01-28 19:05:00,
2013-01-28 14:10:00,49.3,39.6,30.19,SSW,199,5.0,5.0,69,0.00,,,0.02,Wunderground v.1.15,2013-01-28 19:10:00,
2013-01-28 14:15:00,49.4,40.0,30.18,SW,220,4.0,5.0,70,0.00,,,0.02,Wunderground v.1.15,2013-01-28 19:15:00,
2013-01-28 14:25:00,50.1,41.1,30.18,SW,224,3.0,3.0,71,0.00,,,0.02,Wunderground v.1.15,2013-01-28 19:25:00,
2013-01-28 14:30:00,50.3,41.3,30.18,West,266,3.0,5.0,71,0.00,,,0.02,Wunderground v.1.15,2013-01-28 19:30:00,
2013-01-28 14:35:00,50.3,40.9,30.18,SW,229,4.0,5.0,70,0.00,,,0.02,Wunderground v.1.15,2013-01-28 19:35:00,
2013-01-28 14:40:00,50.3,41.3,30.18,SW,214,4.0,4.0,71,0.00,,,0.02,Wunderground v.1.15,2013-01-28 19:40:00,
2013-01-28 14:45:00,50.3,41.3,30.17,SSW,207,4.0,4.0,71,0.00,,,0.02,Wunderground v.1.15,2013-01-28 19:45:00,
2013-01-28 14:50:00,50.7,42.4,30.17,WSW,240,4.0,4.0,73,0.00,,,0.02,Wunderground v.1.15,2013-01-28 19:50:00,
2013-01-28 15:00:00,51.2,42.5,30.17,SW,217,3.0,4.0,72,0.00,,,0.02,Wunderground v.1.15,2013-01-28 20:00:00,
2013-01-28 15:05:00,51.1,42.4,30.17,SW,216,4.0,4.0,72,0.00,,,0.02,Wunderground v.1.15,2013-01-28 20:05:00,
2013-01-28 15:10:00,51.0,42.6,30.17,SW,232,3.0,5.0,73,0.00,,,0.02,Wunderground v.1.15,2013-01-28 20:10:00,
2013-01-28 15:15:00,50.8,42.5,30.17,SW,227,3.0,5.0,73,0.00,,,0.02,Wunderground v.1.15,2013-01-28 20:15:00,
2013-01-28 15:20:00,50.7,42.4,30.17,SW,227,3.0,3.0,73,0.00,,,0.02,Wunderground v.1.15,2013-01-28 20:20:00,
2013-01-28 15:30:00,50.7,42.7,30.17,SSW,202,4.0,5.0,74,0.00,,,0.02,Wunderground v.1.15,2013-01-28 20:30:00,
2013-01-28 15:35:00,50.6,42.6,30.17,SW,228,4.0,8.0,74,0.00,,,0.02,Wunderground v.1.15,2013-01-28 20:35:00,
2013-01-28 15:40:00,50.5,42.9,30.17,SSW,206,4.0,4.0,75,0.00,,,0.02,Wunderground v.1.15,2013-01-28 20:40:00,
2013-01-28 15:45:00,50.4,42.8,30.17,South,177,3.0,4.0,75,0.00,,,0.02,Wunderground v.1.15,2013-01-28 20:45:00,
2013-01-28 15:50:00,50.4,43.1,30.16,SSW,207,3.0,5.0,76,0.00,,,0.02,Wunderground v.1.15,2013-01-28 20:50:00,
2013-01-28 15:55:00,50.5,43.2,30.16,SSW,207,4.0,5.0,76,0.00,,,0.02,Wunderground v.1.15,2013-01-28 20:55:00,
2013-01-28 16:05:00,50.8,43.5,30.15,South,176,3.0,9.0,76,0.00,,,0.02,Wunderground v.1.15,2013-01-28 21:05:00,
2013-01-28 16:10:00,50.9,43.6,30.16,SSW,203,3.0,9.0,76,0.00,,,0.02,Wunderground v.1.15,2013-01-28 21:10:00,
2013-01-28 16:15:00,50.9,43.6,30.16,SSW,202,3.0,9.0,76,0.00,,,0.02,Wunderground v.1.15,2013-01-28 21:15:00,
2013-01-28 16:20:00,50.9,43.6,30.16,SW,227,4.0,9.0,76,0.00,,,0.02,Wunderground v.1.15,2013-01-28 21:20:00,
2013-01-28 16:25:00,51.0,43.7,30.16,SW,234,4.0,9.0,76,0.00,,,0.02,Wunderground v.1.15,2013-01-28 21:25:00,
2013-01-28 16:35:00,51.0,43.7,30.15,South,190,4.0,6.0,76,0.00,,,0.02,Wunderground v.1.15,2013-01-28 21:35:00,
2013-01-28 16:40:00,50.7,43.1,30.15,SSW,208,4.0,4.0,75,0.00,,,0.02,Wunderground v.1.15,2013-01-28 21:40:00,
2013-01-28 16:45:00,50.6,43.3,30.15,South,183,5.0,5.0,76,0.00,,,0.02,Wunderground v.1.15,2013-01-28 21:45:00,
2013-01-28 16:50:00,50.5,43.2,30.15,SSW,207,4.0,4.0,76,0.00,,,0.02,Wunderground v.1.15,2013-01-28 21:50:00,
2013-01-28 16:55:00,50.5,43.2,30.15,SSW,192,3.0,9.0,76,0.00,,,0.02,Wunderground v.1.15,2013-01-28 21:55:00,
2013-01-28 17:00:00,50.2,42.9,30.15,SW,230,4.0,9.0,76,0.00,,,0.02,Wunderground v.1.15,2013-01-28 22:00:00,
2013-01-28 17:10:00,49.9,43.0,30.15,SW,231,4.0,4.0,77,0.00,,,0.02,Wunderground v.1.15,2013-01-28 22:10:00,
2013-01-28 17:20:00,49.7,42.8,30.15,SSW,198,3.0,3.0,77,0.00,,,0.02,Wunderground v.1.15,2013-01-28 22:20:00,
2013-01-28 17:30:00,49.4,42.5,30.16,SSW,211,1.0,2.0,77,0.00,,,0.02,Wunderground v.1.15,2013-01-28 22:30:00,
2013-01-28 17:35:00,49.2,42.6,30.16,SSW,211,1.0,2.0,78,0.00,,,0.02,Wunderground v.1.15,2013-01-28 22:35:00,
2013-01-28 17:45:00,48.9,42.7,30.16,WSW,246,1.0,1.0,79,0.00,,,0.02,Wunderground v.1.15,2013-01-28 22:45:00,
2013-01-28 17:50:00,48.9,42.7,30.16,South,179,1.0,1.0,79,0.00,,,0.02,Wunderground v.1.15,2013-01-28 22:50:00,
2013-01-28 17:55:00,48.8,42.9,30.16,South,178,1.0,1.0,80,0.00,,,0.02,Wunderground v.1.15,2013-01-28 22:55:00,
2013-01-28 18:00:00,48.8,42.6,30.16,SSE,166,1.0,1.0,79,0.00,,,0.02,Wunderground v.1.15,2013-01-28 23:00:00,
2013-01-28 18:05:00,48.8,42.9,30.16,SSE,166,1.0,1.0,80,0.00,,,0.02,Wunderground v.1.15,2013-01-28 23:05:00,
2013-01-28 18:15:00,48.7,42.8,30.16,SSE,166,0.0,1.0,80,0.00,,,0.02,Wunderground v.1.15,2013-01-28 23:15:00,
2013-01-28 18:25:00,48.6,43.0,30.15,SSE,158,1.0,3.0,81,0.00,,,0.02,Wunderground v.1.15,2013-01-28 23:25:00,
2013-01-28 18:30:00,48.6,42.7,30.16,SSE,158,1.0,1.0,80,0.00,,,0.02,Wunderground v.1.15,2013-01-28 23:30:00,
2013-01-28 18:35:00,48.6,42.7,30.16,SSE,162,0.0,1.0,80,0.00,,,0.02,Wunderground v.1.15,2013-01-28 23:35:00,
2013-01-28 18:45:00,48.5,42.9,30.16,South,185,1.0,1.0,81,0.00,,,0.02,Wunderground v.1.15,2013-01-28 23:45:00,
2013-01-28 18:50:00,48.5,42.9,30.16,South,185,1.0,1.0,81,0.00,,,0.02,Wunderground v.1.15,2013-01-28 23:50:00,
2013-01-28 18:55:00,48.5,42.9,30.16,South,185,0.0,2.0,81,0.00,,,0.02,Wunderground v.1.15,2013-01-28 23:55:00,
2013-01-28 19:00:00,48.5,42.9,30.15,South,185,0.0,1.0,81,0.00,,,0.02,Wunderground v.1.15,2013-01-29 00:00:00,
2013-01-28 19:05:00,48.5,42.9,30.15,SSE,158,1.0,2.0,81,0.00,,,0.02,Wunderground v.1.15,2013-01-29 00:05:00,
2013-01-28 19:10:00,48.5,42.9,30.15,SSE,159,1.0,1.0,81,0.00,,,0.02,Wunderground v.1.15,2013-01-29 00:10:00,
2013-01-28 19:20:00,48.4,42.2,30.15,SSW,209,0.0,8.0,79,0.00,,,0.02,Wunderground v.1.15,2013-01-29 00:20:00,
2013-01-28 19:25:00,48.2,42.3,30.15,SSW,209,1.0,8.0,80,0.00,,,0.02,Wunderground v.1.15,2013-01-29 00:25:00,
2013-01-28 19:30:00,48.1,42.5,30.15,SSW,209,0.0,8.0,81,0.00,,,0.02,Wunderground v.1.15,2013-01-29 00:30:00,
2013-01-28 19:35:00,47.9,42.3,30.15,SSW,211,1.0,8.0,81,0.00,,,0.02,Wunderground v.1.15,2013-01-29 00:35:00,
2013-01-28 19:40:00,47.8,42.6,30.15,SSW,211,1.0,1.0,82,0.00,,,0.02,Wunderground v.1.15,2013-01-29 00:40:00,
2013-01-28 19:45:00,47.7,42.2,30.15,SSW,211,0.0,8.0,81,0.00,,,0.02,Wunderground v.1.15,2013-01-29 00:45:00,
2013-01-28 19:55:00,47.5,41.6,30.15,SSW,211,0.0,8.0,80,0.00,,,0.02,Wunderground v.1.15,2013-01-29 00:55:00,
2013-01-28 20:00:00,47.4,41.5,30.15,SSW,211,0.0,8.0,80,0.00,,,0.02,Wunderground v.1.15,2013-01-29 01:00:00,
2013-01-28 20:05:00,47.2,42.0,30.14,SW,224,0.0,8.0,82,0.00,,,0.02,Wunderground v.1.15,2013-01-29 01:05:00,
2013-01-28 20:10:00,47.0,42.1,30.15,WSW,250,1.0,8.0,83,0.00,,,0.02,Wunderground v.1.15,2013-01-29 01:10:00,
2013-01-28 20:15:00,46.9,42.0,30.15,WSW,254,1.0,8.0,83,0.00,,,0.02,Wunderground v.1.15,2013-01-29 01:15:00,
2013-01-28 20:25:00,46.9,42.3,30.14,WSW,248,1.0,8.0,84,0.00,,,0.02,Wunderground v.1.15,2013-01-29 01:25:00,
2013-01-28 20:30:00,47.0,42.4,30.14,SW,227,1.0,1.0,84,0.00,,,0.02,Wunderground v.1.15,2013-01-29 01:30:00,
2013-01-28 20:35:00,47.0,42.1,30.14,SW,228,1.0,1.0,83,0.00,,,0.02,Wunderground v.1.15,2013-01-29 01:35:00,
2013-01-28 20:40:00,47.0,42.1,30.14,SW,228,0.0,0.0,83,0.00,,,0.02,Wunderground v.1.15,2013-01-29 01:40:00,
2013-01-28 20:45:00,47.1,42.2,30.14,SW,228,0.0,2.0,83,0.00,,,0.02,Wunderground v.1.15,2013-01-29 01:45:00,
2013-01-28 20:50:00,47.1,42.2,30.14,SW,228,0.0,0.0,83,0.00,,,0.02,Wunderground v.1.15,2013-01-29 01:50:00,
2013-01-28 21:00:00,47.3,42.4,30.13,SSE,161,1.0,1.0,83,0.00,,,0.02,Wunderground v.1.15,2013-01-29 02:00:00,
2013-01-28 21:05:00,47.3,42.4,30.13,SSW,198,1.0,2.0,83,0.00,,,0.02,Wunderground v.1.15,2013-01-29 02:05:00,
2013-01-28 21:10:00,47.3,42.4,30.13,WSW,238,1.0,2.0,83,0.00,,,0.02,Wunderground v.1.15,2013-01-29 02:10:00,
2013-01-28 21:15:00,47.3,42.4,30.13,SW,235,2.0,2.0,83,0.00,,,0.02,Wunderground v.1.15,2013-01-29 02:15:00,
2013-01-28 21:20:00,47.2,42.3,30.13,SW,223,2.0,3.0,83,0.00,,,0.02,Wunderground v.1.15,2013-01-29 02:20:00,
2013-01-28 21:25:00,47.2,42.3,30.13,WSW,238,2.0,3.0,83,0.00,,,0.02,Wunderground v.1.15,2013-01-29 02:25:00,
2013-01-28 21:35:00,47.5,42.9,30.12,WSW,237,3.0,4.0,84,0.00,,,0.02,Wunderground v.1.15,2013-01-29 02:35:00,
2013-01-28 21:40:00,47.8,43.2,30.13,WSW,240,4.0,4.0,84,0.00,,,0.02,Wunderground v.1.15,2013-01-29 02:40:00,
2013-01-28 21:45:00,48.1,43.5,30.13,WSW,238,3.0,4.0,84,0.00,,,0.02,Wunderground v.1.15,2013-01-29 02:45:00,
2013-01-28 21:50:00,48.3,43.4,30.12,SW,227,3.0,4.0,83,0.00,,,0.02,Wunderground v.1.15,2013-01-29 02:50:00,
2013-01-28 21:55:00,48.5,43.6,30.12,WSW,238,3.0,4.0,83,0.00,,,0.02,Wunderground v.1.15,2013-01-29 02:55:00,
2013-01-28 22:05:00,48.8,43.5,30.12,SW,225,3.0,4.0,82,0.00,,,0.02,Wunderground v.1.15,2013-01-29 03:05:00,
2013-01-28 22:10:00,49.0,43.7,30.11,SW,234,4.0,4.0,82,0.00,,,0.02,Wunderground v.1.15,2013-01-29 03:10:00,
2013-01-28 22:15:00,49.1,43.8,30.11,SW,219,4.0,4.0,82,0.00,,,0.02,Wunderground v.1.15,2013-01-29 03:15:00,
2013-01-28 22:20:00,49.2,43.9,30.11,WSW,248,4.0,4.0,82,0.00,,,0.02,Wunderground v.1.15,2013-01-29 03:20:00,
2013-01-28 22:25:00,49.4,44.1,30.11,SW,227,4.0,4.0,82,0.00,,,0.02,Wunderground v.1.15,2013-01-29 03:25:00,
2013-01-28 22:30:00,49.5,44.2,30.11,SSW,213,4.0,4.0,82,0.00,,,0.02,Wunderground v.1.15,2013-01-29 03:30:00,
2013-01-28 22:40:00,49.8,44.8,30.11,WSW,247,4.0,4.0,83,0.00,,,0.02,Wunderground v.1.15,2013-01-29 03:40:00,
2013-01-28 22:45:00,50.1,45.5,30.11,SSW,206,4.0,5.0,84,0.00,,,0.02,Wunderground v.1.15,2013-01-29 03:45:00,
2013-01-28 22:50:00,50.3,45.6,30.11,WSW,246,4.0,4.0,84,0.00,,,0.02,Wunderground v.1.15,2013-01-29 03:50:00,
2013-01-28 22:55:00,50.6,45.9,30.11,WSW,238,5.0,5.0,84,0.00,,,0.02,Wunderground v.1.15,2013-01-29 03:55:00,
2013-01-28 23:00:00,50.9,46.2,30.11,SW,217,5.0,5.0,84,0.00,,,0.02,Wunderground v.1.15,2013-01-29 04:00:00,
2013-01-28 23:05:00,51.2,46.2,30.10,SW,234,5.0,7.0,83,0.00,,,0.00,Wunderground v.1.15,2013-01-29 04:05:00,
2013-01-28 23:10:00,51.4,46.4,30.10,SW,234,5.0,6.0,83,0.00,,,0.00,Wunderground v.1.15,2013-01-29 04:10:00,
2013-01-28 23:15:00,51.5,46.2,30.10,WSW,244,5.0,6.0,82,0.00,,,0.00,Wunderground v.1.15,2013-01-29 04:15:00,
2013-01-28 23:20:00,51.6,46.6,30.10,WSW,241,5.0,5.0,83,0.00,,,0.00,Wunderground v.1.15,2013-01-29 04:20:00,
2013-01-28 23:25:00,51.6,46.3,30.10,SW,217,5.0,5.0,82,0.00,,,0.00,Wunderground v.1.15,2013-01-29 04:25:00,
2013-01-28 23:35:00,51.4,46.1,30.10,WSW,244,4.0,4.0,82,0.00,,,0.00,Wunderground v.1.15,2013-01-29 04:35:00,
2013-01-28 23:40:00,51.3,46.0,30.10,WSW,254,4.0,4.0,82,0.00,,,0.00,Wunderground v.1.15,2013-01-29 04:40:00,
2013-01-28 23:45:00,51.1,45.8,30.10,SW,234,4.0,5.0,82,0.00,,,0.00,Wunderground v.1.15,2013-01-29 04:45:00,
2013-01-28 23:50:00,50.9,45.9,30.10,WSW,255,4.0,5.0,83,0.00,,,0.00,Wunderground v.1.15,2013-01-29 04:50:00,
2013-01-28 23:55:00,50.8,45.8,30.10,WSW,253,4.0,5.0,83,0.00,,,0.00,Wunderground v.1.15,2013-01-29 04:55:00,